Wind_Speed
16 16 16 16 15 14 14 13 13 14 14 13 13 13 13 13 13 13 13 13 12 12 11 10 10 9 9 8 8 8 8 8 8 8 8 7 7 7 7 8 9 9 10 11 12 13 13 14 14
18 18 17 17 16 15 15 14 14 14 14 13 13 13 13 13 13 13 13 12 12 12 11 10 10 9 8 8 8 8 8 8 8 8 7 7 7 8 8 9 10 11 12 12 13 14 14 15 16
19 19 19 18 17 16 16 16 15 15 14 14 13 13 13 13 13 13 13 13 12 12 11 10 9 9 8 8 8 8 8 7 7 7 7 7 8 8 9 10 11 12 13 14 15 15 16 17 17
21 21 21 20 18 18 17 16 16 15 15 14 14 14 13 13 13 13 13 13 12 11 11 10 9 9 8 8 7 7 6 6 7 7 7 8 9 10 11 12 12 13 14 15 16 17 17 18 19
23 23 22 21 20 19 19 18 17 16 16 15 15 14 14 14 14 14 14 13 13 12 11 10 9 9 8 7 7 7 7 7 7 8 9 10 11 12 12 13 14 15 16 17 18 18 19 19 20
25 24 24 22 21 21 20 19 18 17 16 16 15 15 14 14 14 14 14 13 13 12 11 10 9 9 8 7 7 7 8 8 9 10 11 12 13 14 14 15 16 17 18 19 19 19 20 21 22
27 27 26 24 23 23 22 21 20 19 18 17 16 16 15 15 14 14 14 14 13 13 12 11 10 9 8 8 8 8 9 10 11 12 12 13 14 15 16 17 18 18 19 20 21 21 22 23 23
29 29 28 26 25 24 24 23 22 20 19 18 18 17 16 16 15 15 15 15 14 14 13 12 11 10 10 10 10 10 11 11 12 13 14 15 16 17 17 18 19 20 21 21 22 23 24 24 25
32 32 30 28 26 26 26 25 24 23 22 20 19 19 18 17 16 16 15 16 15 15 14 13 12 12 11 11 11 12 12 13 14 14 15 16 17 18 20 20 21 22 23 23 24 24 25 26 26
35 33 30 29 29 28 28 28 27 25 24 23 21 20 20 19 18 17 17 17 16 16 15 14 14 13 13 13 13 14 14 15 16 16 17 18 19 20 21 22 23 24 24 25 25 26 27 27 27
38 35 32 31 31 31 31 30 29 28 26 25 24 23 22 21 20 19 18 18 18 17 16 16 15 15 15 15 15 16 16 16 17 18 19 20 20 22 23 24 24 25 26 26 27 27 28 28 29
40 37 35 34 33 33 33 33 32 30 29 28 27 25 24 23 22 21 20 19 19 18 18 17 17 17 17 17 17 17 18 18 19 20 20 21 22 23 24 25 26 26 27 27 27 28 29 30 30
43 40 38 37 36 35 35 35 34 32 31 30 29 27 26 25 24 23 22 21 20 20 19 19 19 18 18 19 19 19 19 20 20 21 22 23 24 25 26 27 28 28 28 28 29 29 30 31 32
45 43 42 40 39 38 37 36 36 33 33 32 30 29 28 27 26 25 24 23 22 21 21 20 20 20 20 20 20 21 21 22 22 23 24 25 26 27 28 28 28 29 29 29 30 31 31 32 33
48 46 45 43 41 40 39 38 36 35 35 34 32 31 30 29 28 27 26 25 24 23 22 22 22 22 22 22 22 22 23 23 24 25 26 27 28 28 29 29 29 29 30 31 32 32 33 33 34
50 49 48 45 44 42 42 40 37 37 37 36 34 33 33 31 30 29 28 27 25 24 24 23 23 23 23 23 23 23 24 24 25 26 27 28 28 29 29 30 30 31 31 32 33 33 33 34 34
54 51 48 46 46 45 44 41 39 39 38 37 36 35 34 34 32 31 30 29 27 26 26 25 24 24 24 24 24 25 25 26 27 27 28 29 29 30 30 31 31 32 32 33 34 34 34 34 34
54 52 50 48 47 46 46 43 41 41 40 39 38 37 36 35 34 33 32 31 29 28 27 26 26 26 26 26 26 26 27 27 28 28 29 30 30 30 31 31 32 32 33 33 34 34 34 35 35
53 53 52 49 48 48 48 46 43 43 42 40 39 39 37 36 36 35 34 33 31 30 29 28 28 27 27 27 27 28 28 29 29 29 30 30 31 31 32 32 32 33 33 34 34 35 35 35 36
55 53 52 51 50 50 50 49 46 45 44 42 41 40 38 38 37 36 35 34 32 31 31 30 30 29 29 29 29 29 29 30 30 30 30 31 32 32 33 33 33 34 34 34 34 35 35 36 36
56 54 52 51 51 52 52 51 49 47 45 44 43 41 40 38 37 37 36 35 34 33 32 31 31 30 30 30 30 29 30 30 31 31 31 32 33 33 33 33 34 34 35 35 35 35 36 36 36
56 54 52 51 52 53 54 54 51 49 47 45 43 42 40 39 39 38 37 36 35 34 33 32 32 31 31 30 30 30 31 31 32 32 32 33 33 33 34 34 34 35 35 35 36 36 36 36 36
55 54 53 53 52 54 54 56 52 51 48 45 44 43 42 41 40 40 39 38 37 36 34 33 33 32 32 32 32 32 32 32 32 33 33 33 33 34 34 34 35 35 35 36 36 36 36 36 36
54 54 54 53 54 56 54 55 54 51 47 45 44 44 42 42 41 40 39 38 38 37 35 34 34 33 33 33 33 33 33 33 33 33 33 33 34 34 34 35 35 35 35 36 36 35 35 35 36
55 54 53 54 55 56 53 55 55 50 46 45 44 43 42 42 41 41 39 38 38 37 36 35 35 34 33 33 33 33 33 33 33 33 33 34 34 34 35 35 35 35 35 35 35 35 35 35 36
55 55 55 53 55 55 54 55 53 48 46 44 43 42 42 42 41 41 40 38 38 37 37 36 36 35 34 33 33 33 33 33 33 33 33 34 34 34 35 36 36 35 35 34 34 35 35 36 36
54 55 53 52 52 52 54 53 51 48 44 43 42 42 41 41 41 40 40 39 37 37 36 36 35 34 34 33 33 33 33 33 33 33 34 34 34 34 35 35 35 35 35 34 35 35 35 36 36
53 52 52 52 51 50 51 51 49 46 43 42 42 42 42 41 40 40 39 38 37 36 35 35 35 34 34 33 33 33 33 33 33 34 33 33 34 34 35 35 35 35 35 35 35 35 36 36 36
53 52 53 53 52 49 49 49 47 44 42 41 40 40 41 41 41 40 39 37 36 36 35 35 34 34 34 33 33 33 33 33 33 33 34 34 34 34 34 35 35 35 35 35 35 35 36 37 37
52 52 52 53 53 50 48 48 45 42 40 40 39 40 40 40 40 39 38 37 36 36 35 35 34 34 34 33 33 33 33 33 33 33 34 34 34 35 35 35 35 35 35 35 35 36 37 37 38
Wind_Direction
227 224 220 218 216 213 212 212 215 216 215 216 217 218 219 218 217 216 216 217 218 218 221 224 225 228 232 237 243 250 256 261 266 269 272 276 279 284 289 292 295 296 296 297 297 298 298 297 297
229 225 221 217 215 212 212 213 215 215 213 213 214 215 216 216 215 214 215 216 217 219 220 221 224 229 234 241 248 255 259 262 264 266 268 273 279 285 289 292 294 294 295 296 296 297 297 297 296
229 225 222 218 214 213 212 213 214 214 213 213 213 214 214 214 214 214 215 215 215 217 219 221 225 230 236 244 251 256 258 259 260 264 268 275 281 287 290 293 294 295 296 297 297 297 297 296 296
230 227 222 219 215 214 215 213 213 215 215 215 215 216 214 213 213 213 214 215 215 218 221 225 228 233 239 246 249 251 254 257 262 266 273 280 284 288 290 293 295 296 297 298 298 298 297 296 296
230 227 224 220 216 216 216 215 215 215 215 216 217 217 214 211 211 212 214 216 217 220 222 227 231 235 239 240 242 250 256 262 268 273 278 282 286 289 291 293 294 295 296 297 298 298 297 297 296
230 228 225 221 218 217 216 216 217 217 216 216 216 216 213 211 211 212 213 215 216 219 223 228 231 233 235 239 245 253 261 268 272 277 281 283 287 289 291 293 294 295 296 297 298 298 298 297 297
231 228 225 221 219 218 217 217 217 218 217 217 216 216 215 214 213 214 214 214 215 217 221 226 229 232 237 243 250 259 267 273 278 281 283 285 287 289 292 293 295 296 296 297 298 298 298 298 297
231 229 225 222 220 219 219 218 218 219 219 218 218 218 218 217 216 217 216 216 216 218 222 227 232 237 243 250 258 265 272 276 280 282 285 287 288 290 292 294 295 295 296 297 297 298 297 297 297
230 229 226 223 222 221 220 220 220 220 221 221 220 220 220 220 219 219 220 219 220 223 227 232 236 241 248 256 262 267 273 278 281 283 286 288 289 290 292 294 294 295 296 296 297 297 297 297 298
230 229 226 225 223 222 222 222 222 221 222 222 222 222 222 222 222 223 223 223 224 227 231 236 240 244 251 257 263 268 273 278 281 284 286 289 291 292 293 294 295 296 296 297 297 297 298 298 298
231 230 227 226 224 224 224 224 224 224 223 224 224 224 224 225 226 227 227 228 228 231 234 238 242 248 254 260 265 269 274 279 282 284 287 289 291 293 294 295 296 296 297 297 297 298 298 298 298
231 229 228 227 226 225 225 225 225 226 225 225 226 226 227 228 228 230 231 231 232 234 236 240 245 251 257 262 266 271 275 279 282 284 286 289 291 293 295 296 297 297 297 297 296 297 298 298 298
231 229 228 227 227 226 226 225 225 226 226 227 228 228 228 230 231 231 232 234 236 237 239 243 248 253 259 263 267 272 276 279 281 284 287 289 292 294 295 296 296 296 296 296 296 296 297 298 299
230 229 229 228 227 227 226 226 226 225 227 228 229 229 229 230 231 232 233 235 237 240 243 246 251 256 260 264 268 272 275 278 281 284 287 290 292 294 296 296 296 296 296 296 296 297 298 299 299
230 230 229 228 228 228 228 227 226 226 228 229 229 230 230 231 231 232 233 235 238 242 245 249 253 257 261 264 269 272 276 279 282 285 288 290 292 294 295 295 296 296 296 297 297 298 298 299 299
229 229 229 228 228 229 229 227 226 228 228 229 229 230 231 232 232 233 234 236 239 243 247 251 255 259 262 266 270 273 276 280 283 286 288 289 292 294 295 295 296 296 296 297 298 298 299 299 300
229 229 229 229 229 230 231 229 227 229 230 230 231 231 232 232 233 234 235 237 240 244 249 253 256 260 263 267 270 274 277 280 283 286 287 289 291 293 294 295 296 296 296 297 298 298 299 299 300
230 230 230 230 230 231 232 231 229 229 231 231 232 232 233 234 234 235 236 239 242 246 250 253 256 260 263 267 270 274 278 280 283 285 287 290 292 293 294 295 295 296 296 297 297 298 299 299 300
230 231 231 231 231 232 232 232 230 230 231 232 233 234 234 235 236 237 238 240 243 246 249 253 257 261 264 267 270 274 277 280 282 285 287 289 291 292 293 294 295 295 296 296 297 298 299 300 300
229 229 230 231 231 232 233 233 232 232 232 232 234 235 235 235 236 238 240 242 244 247 250 254 257 261 264 267 270 273 277 280 282 285 288 289 291 292 293 293 294 295 296 296 297 298 299 299 300
228 229 230 232 232 233 234 233 232 232 233 233 234 235 236 236 237 238 241 243 245 248 251 254 257 261 264 267 270 273 276 279 282 285 286 288 290 291 292 293 293 294 295 296 296 297 298 299 299
228 229 231 232 234 234 235 235 232 233 234 234 234 236 237 237 238 239 241 244 247 249 251 254 257 260 263 266 270 272 276 278 281 283 285 287 289 290 291 293 293 294 294 295 296 297 297 298 299
228 228 231 232 235 236 236 238 233 233 234 235 235 236 238 239 240 241 242 244 246 248 251 253 256 259 262 265 268 272 274 277 280 282 284 286 288 289 291 292 293 293 294 295 295 296 297 297 298
226 227 230 232 234 236 235 238 235 233 234 235 236 237 238 239 241 241 242 243 246 248 251 253 256 259 261 264 268 271 274 276 279 281 283 285 287 289 291 292 293 293 294 295 295 295 296 297 298
224 225 228 231 233 236 235 238 236 232 232 234 236 237 238 239 240 241 242 243 245 248 251 253 256 258 261 264 268 270 273 275 277 279 282 284 286 288 290 292 292 293 294 295 295 295 295 296 298
223 224 226 230 234 236 236 238 236 233 232 233 234 236 237 238 239 241 242 243 245 248 251 253 255 258 261 264 267 270 272 275 276 278 281 283 285 287 290 291 292 292 293 294 294 295 296 297 297
223 223 225 230 234 237 238 238 237 234 232 232 232 234 235 237 239 241 243 244 245 247 250 252 254 257 260 263 266 269 271 274 276 278 280 283 285 287 289 290 291 292 293 293 294 295 296 297 297
223 224 225 227 230 234 237 237 237 235 234 233 233 234 234 236 239 241 242 244 246 247 249 251 254 257 260 263 266 268 271 273 276 278 280 282 285 287 289 290 290 292 292 292 293 294 296 297 298
221 222 224 227 230 233 235 236 236 236 235 234 233 233 235 236 238 239 241 243 245 247 249 251 253 256 259 262 265 268 270 273 275 278 280 282 284 286 287 288 290 290 291 292 293 295 296 297 297
222 223 225 227 230 232 235 235 235 236 235 233 232 232 234 236 237 238 240 242 245 247 248 250 252 255 258 262 265 267 270 273 275 277 280 283 285 286 287 288 289 290 291 292 294 295 296 297 297
Height
5855 5856 5858 5860 5862 5863 5864 5865 5865 5866 5867 5868 5869 5870 5871 5872 5874 5877 5876 5876 5877 5877 5878 5879 5879 5880 5880 5880 5881 5881 5881 5881 5881 5880 5880 5879 5879 5878 5877 5876 5876 5875 5874 5873 5871 5870 5869 5868 5866
5852 5854 5856 5857 5859 5861 5862 5862 5863 5864 5865 5866 5867 5868 5869 5870 5871 5872 5873 5874 5875 5875 5876 5877 5878 5878 5879 5879 5879 5879 5879 5879 5879 5879 5878 5878 5877 5877 5876 5875 5874 5873 5872 5871 5869 5868 5867 5865 5864
5849 5850 5853 5855 5856 5858 5859 5860 5861 5862 5863 5864 5865 5866 5867 5868 5869 5870 5871 5872 5873 5874 5875 5875 5876 5877 5877 5877 5877 5878 5878 5877 5877 5877 5877 5876 5876 5875 5874 5873 5872 5871 5870 5868 5867 5866 5864 5863 5861
5845 5847 5850 5852 5854 5855 5856 5857 5858 5859 5861 5862 5863 5864 5865 5866 5867 5868 5869 5870 5871 5872 5873 5874 5874 5875 5875 5875 5876 5876 5876 5876 5875 5875 5875 5874 5874 5873 5872 5871 5870 5868 5867 5866 5864 5863 5861 5860 5858
5841 5843 5846 5848 5850 5852 5853 5854 5855 5857 5858 5860 5861 5862 5863 5864 5864 5865 5867 5868 5869 5870 5871 5872 5872 5873 5873 5874 5874 5874 5874 5874 5874 5873 5873 5872 5872 5871 5869 5868 5867 5866 5864 5863 5861 5859 5858 5856 5854
5837 5839 5842 5844 5847 5848 5849 5851 5852 5854 5856 5857 5858 5860 5861 5861 5862 5863 5865 5866 5867 5868 5869 5870 5870 5871 5871 5872 5872 5872 5872 5872 5872 5871 5871 5870 5869 5868 5867 5866 5864 5863 5861 5860 5858 5856 5854 5853 5851
5832 5834 5837 5840 5842 5844 5846 5847 5849 5851 5852 5854 5855 5857 5858 5859 5860 5861 5862 5863 5864 5866 5867 5867 5868 5869 5869 5870 5870 5870 5870 5870 5869 5869 5868 5867 5866 5865 5864 5863 5861 5860 5858 5856 5854 5853 5851 5849 5847
5826 5829 5832 5835 5838 5841 5842 5843 5845 5847 5849 5851 5852 5854 5855 5857 5857 5859 5860 5861 5862 5863 5864 5865 5866 5866 5867 5867 5868 5868 5868 5867 5867 5866 5865 5864 5863 5862 5861 5859 5858 5856 5854 5852 5850 5849 5847 5844 5842
5819 5823 5826 5831 5833 5836 5837 5839 5841 5843 5845 5847 5849 5851 5852 5853 5855 5856 5857 5858 5860 5861 5862 5863 5863 5864 5864 5865 5865 5865 5865 5864 5864 5863 5862 5861 5860 5858 5857 5856 5854 5852 5850 5848 5846 5844 5842 5840 5838
5812 5816 5822 5825 5828 5830 5831 5834 5836 5838 5841 5843 5845 5847 5848 5850 5851 5853 5854 5855 5856 5858 5859 5860 5860 5861 5861 5862 5862 5862 5861 5861 5860 5860 5858 5857 5856 5855 5853 5851 5850 5848 5846 5844 5842 5840 5837 5835 5833
5805 5810 5815 5818 5821 5823 5826 5828 5831 5833 5836 5839 5841 5842 5844 5846 5848 5849 5850 5852 5853 5854 5855 5856 5857 5858 5858 5858 5859 5858 5858 5858 5857 5856 5855 5854 5852 5851 5849 5847 5845 5843 5841 5839 5837 5835 5832 5830 5827
5797 5803 5807 5810 5813 5816 5819 5822 5825 5828 5832 5833 5835 5838 5840 5842 5843 5845 5846 5848 5849 5850 5852 5853 5853 5854 5855 5855 5855 5855 5854 5854 5853 5852 5851 5850 5848 5846 5845 5843 5841 5838 5836 5834 5832 5830 5827 5825 5822
5788 5794 5798 5802 5805 5809 5812 5815 5819 5823 5825 5827 5830 5833 5835 5837 5839 5840 5842 5844 5845 5846 5848 5849 5849 5850 5850 5851 5851 5851 5850 5850 5849 5848 5847 5845 5844 5842 5840 5838 5836 5834 5831 5829 5827 5824 5822 5819 5816
5780 5784 5789 5793 5797 5801 5805 5808 5812 5817 5819 5821 5824 5827 5830 5832 5833 5835 5837 5839 5840 5842 5843 5844 5845 5846 5846 5846 5846 5846 5846 5845 5844 5843 5842 5840 5839 5837 5835 5833 5831 5828 5826 5824 5821 5819 5816 5813 5810
5770 5774 5779 5784 5789 5793 5797 5801 5806 5810 5812 5815 5818 5821 5824 5826 5828 5830 5832 5834 5835 5837 5838 5839 5840 5841 5841 5841 5841 5841 5841 5840 5839 5838 5837 5835 5833 5831 5829 5827 5825 5823 5820 5818 5815 5813 5810 5807 5804
5759 5764 5770 5777 5781 5785 5789 5795 5800 5802 5805 5808 5811 5814 5817 5820 5822 5825 5826 5828 5830 5832 5833 5834 5835 5835 5836 5836 5836 5836 5835 5835 5834 5833 5831 5829 5828 5826 5824 5821 5819 5817 5815 5812 5809 5806 5804 5801 5798
5747 5754 5761 5768 5772 5776 5780 5787 5792 5794 5797 5801 5804 5807 5810 5813 5816 5819 5821 5823 5824 5826 5827 5829 5829 5830 5830 5830 5830 5830 5830 5829 5828 5827 5825 5823 5822 5820 5818 5815 5813 5811 5808 5806 5803 5800 5797 5794 5791
5740 5747 5752 5758 5763 5767 5771 5777 5782 5785 5789 5793 5797 5800 5803 5807 5810 5812 5814 5816 5818 5820 5822 5823 5824 5824 5824 5825 5825 5824 5824 5823 5822 5821 5819 5817 5816 5814 5811 5809 5807 5804 5802 5799 5797 5794 5791 5788 5784
5730 5735 5741 5748 5752 5756 5761 5767 5772 5776 5780 5785 5789 5792 5796 5800 5803 5805 5807 5810 5812 5814 5815 5817 5817 5818 5818 5819 5818 5818 5818 5817 5816 5814 5813 5811 5809 5807 5805 5803 5801 5798 5795 5793 5790 5787 5784 5781 5777
5717 5724 5731 5737 5741 5746 5750 5756 5762 5766 5772 5776 5780 5785 5789 5792 5795 5798 5801 5803 5805 5807 5809 5810 5811 5811 5812 5812 5812 5812 5811 5810 5809 5808 5806 5804 5802 5800 5798 5796 5794 5791 5789 5786 5783 5780 5777 5774 5770
5705 5714 5722 5727 5731 5734 5739 5744 5751 5757 5762 5767 5772 5776 5780 5784 5787 5790 5793 5796 5798 5800 5802 5803 5804 5804 5805 5805 5805 5805 5804 5803 5802 5801 5799 5797 5795 5793 5791 5789 5787 5784 5782 5779 5776 5773 5770 5767 5763
5696 5705 5711 5715 5719 5723 5728 5732 5742 5747 5752 5758 5764 5768 5772 5776 5779 5782 5785 5788 5790 5792 5794 5795 5796 5797 5797 5797 5798 5798 5797 5796 5795 5794 5792 5790 5788 5787 5784 5782 5780 5777 5774 5772 5769 5765 5762 5759 5756
5687 5695 5700 5704 5707 5711 5716 5721 5731 5736 5743 5750 5756 5759 5763 5767 5770 5773 5776 5779 5782 5784 5786 5787 5788 5789 5790 5790 5790 5790 5790 5789 5788 5786 5785 5783 5781 5779 5777 5775 5772 5770 5767 5764 5761 5758 5755 5752 5748
5676 5682 5687 5691 5694 5698 5707 5710 5718 5728 5736 5742 5746 5750 5754 5757 5761 5764 5767 5770 5773 5775 5778 5779 5781 5782 5782 5783 5783 5783 5782 5782 5780 5779 5777 5776 5774 5772 5770 5767 5765 5762 5759 5756 5753 5750 5747 5744 5741
5662 5670 5675 5678 5681 5687 5697 5698 5708 5721 5727 5732 5737 5740 5744 5747 5751 5755 5758 5761 5764 5767 5769 5771 5772 5774 5774 5775 5775 5775 5774 5774 5773 5771 5770 5768 5766 5764 5762 5760 5757 5754 5752 5749 5745 5742 5739 5736 5733
5652 5659 5666 5670 5674 5681 5684 5688 5701 5710 5717 5722 5726 5730 5734 5738 5742 5746 5749 5752 5755 5758 5760 5762 5764 5765 5766 5767 5767 5767 5766 5766 5765 5764 5762 5761 5759 5757 5754 5752 5749 5746 5744 5741 5738 5735 5732 5728 5725
5641 5646 5657 5662 5665 5670 5673 5681 5691 5699 5706 5712 5717 5720 5724 5729 5732 5736 5740 5743 5746 5749 5751 5754 5755 5757 5758 5759 5759 5759 5758 5758 5757 5756 5754 5753 5751 5749 5746 5744 5741 5738 5736 5733 5730 5727 5724 5720 5717
5631 5639 5644 5648 5653 5658 5664 5672 5681 5689 5696 5702 5707 5711 5715 5719 5723 5727 5731 5734 5737 5740 5742 5745 5747 5748 5749 5750 5750 5750 5750 5750 5749 5748 5746 5745 5743 5741 5738 5736 5733 5731 5728 5725 5722 5719 5716 5712 5709
5620 5626 5631 5638 5644 5651 5656 5666 5673 5680 5686 5692 5697 5701 5705 5710 5714 5718 5721 5725 5728 5731 5733 5736 5738 5739 5740 5741 5742 5742 5742 5741 5740 5739 5738 5737 5735 5732 5730 5728 5725 5722 5719 5717 5714 5711 5707 5704 5700
5609 5616 5623 5629 5635 5642 5649 5659 5664 5670 5676 5682 5687 5691 5695 5700 5704 5708 5712 5716 5719 5722 5724 5727 5729 5730 5731 5732 5733 5733 5733 5733 5732 5731 5730 5728 5726 5724 5722 5720 5717 5714 5711 5708 5705 5702 5699 5695 5691